"Pseudo-MPEC" for P12oAZ5

Created 2026 Jul 25 15:35:05 UT using Find_Orb

Click here for an explanation of pseudo-MPECs

 
 Astrometry: 
     P12oAZ5 0C2026 07 24.39793521 53 01.383-06 09 19.58   ~7OL5x20.72rUNEOCPI41
     P12oAZ5 0C2026 07 24.40124221 53 03.775-06 09 38.38   ~7OL5 20.38rUNEOCPI41
     P12oAZ5*0C2026 07 24.48984421 54 17.302-06 17 07.27   ~7OG5 20.90wXNEOCPF51
     P12oAZ5 0C2026 07 24.50173121 54 26.442-06 18 10.79   ~7OG5 20.84wXNEOCPF51
     P12oAZ5 0C2026 07 24.51362721 54 35.596-06 19 14.24   ~7OG5 20.77wXNEOCPF51
     P12oAZ5 0C2026 07 24.52552821 54 44.740-06 20 17.48   ~7OG5 20.64wXNEOCPF51
     P12oAZ5 0C2026 07 25.04001322 01 48.302-07 06 41.90   ~7P1ox20.3 GWNEOCPJ95
     P12oAZ5 0C2026 07 25.05544122 02 00.526-07 08 03.59   ~7P1o 20.6 GWNEOCPJ95
     P12oAZ5 KC2026 07 25.34413222 05 56.256-07 33 14.18   ~7P9Z 20.6 RqNEOCPH36
     P12oAZ5 KC2026 07 25.36756922 06 14.666-07 35 16.22   ~7P9Zx20.4 RqNEOCPH36
     P12oAZ5 1C2026 07 25.45866022 07 32.604-07 42 43.43   ~7PCo 21.34GVNEOCPT12
     P12oAZ5 1C2026 07 25.45933522 07 33.123-07 42 46.99   ~7PCo 20.77GVNEOCPT12

Station data:
(F51) Pan-STARRS 1, Haleakala  (N20.707234 W156.255910)  US/Hawaii.
   Observers J. Herman, T. Lowe, P. Minguez, A. Schultz, I. Smith. Measurers
   K. Chambers, T. de Boer, J. Fairlamb, H. Gao, M. Huber, C.-C. Lin, E.
   Magnier, Y. Ramanjooloo, R. Wainscoat, R. Weryk. 1.8-m Ritchey-Chrétien +
   CCD.
(H36) Sandlot Observatory, Scranton  (N38.797718 W95.706550)  US/Kansas.
   Observer G. Hug. 0.56-m reflector + CCD.
(I41) Palomar Mountain--ZTF  (N33.357336 W116.859780)  US/California.
   Observers B. T. Bolin, Z. T. F. Collaboration. Measurers B. T. Bolin,
   Z.-Y. Lin, F. J. Masci. 1.2-m f/2.4 Schmidt.
(J95) Great Shefford  (N51.474969 W1.447003)  UK/England.  Observer P.
   Birtwhistle. 0.41-m f/6.3 Schmidt-Cassegrain + CCD.
(T12) Mauna Kea-UH/Tholen NEO Follow-Up (2.24-m)  (N19.822991 W155.469434)
   US/Hawaii.  Observer R. Weryk. 2.24-m f/10.1 University of Hawaii
   reflector.

Orbital elements:  P12oAZ5
   Perihelion 2026 Jul 31.058896 +/- 0.0479 TT =  1:24:48.5 (JD 2461252.558896)
Epoch 2026 Jul 25.0 TT = JDT 2461246.5   Earth MOID: 0.0606      AutoNEOCP
M 358.053927902 +/- 0.027           (J2000 ecliptic)
n   0.321192543 +/- 0.00281         Peri.  184.492318 +/- 0.050
a   2.111668523 +/- 0.0123          Node   125.491393 +/- 0.008
e   0.49081965 +/- 0.00283          Incl.    8.809128 +/- 0.033
P   3.06859                H 25.27  G  0.15   U  8.8
q 1.075220111 +/- 0.000285    Q 3.148116936 +/- 0.0243
9 of 12 observations 2026 July 24-25 (25.4 hr); mean residual 0".19
Residuals in arcseconds: 
260724 I41( 2.8+  .96+)   260724 F51  .03+  .06-    260725 H36  .41+  .58-    
260724 I41  .31+  .21-    260724 F51  .13-  .05+    260725 H36( 3.1+  .89+)   
260724 F51  .00   .09+    260725 J95( 1.2-  .22-)   260725 T12  .01+  .00     
260724 F51  .05-  .01-    260725 J95  .01+  .05+    260725 T12  .02-  .02+    

Ephemerides (geocentric):
Date (UTC) HH   RA             Dec           delta  r     elong  mag " sig PA
---- --------  ------------   ------------  ------ ------ -----  --- --------
2026 07 25 16  22 10 20.191   -07 59 59.19  .06987 1.0770 150.5 20.9 .318 145
2026 07 25 17  22 10 54.271   -08 03 37.49  .06988 1.0770 150.5 20.9 .316 145
2026 07 25 18  22 11 28.344   -08 07 15.60  .06989 1.0770 150.4 20.9 .313 144
2026 07 25 19  22 12 02.408   -08 10 53.50  .06991 1.0770 150.4 20.9 .310 143
2026 07 25 20  22 12 36.464   -08 14 31.19  .06992 1.0769 150.3 20.9 .307 143
2026 07 25 21  22 13 10.510   -08 18 08.67  .06993 1.0769 150.2 20.9 .303 142
2026 07 25 22  22 13 44.547   -08 21 45.92  .06995 1.0769 150.2 20.9 .299 142
2026 07 25 23  22 14 18.573   -08 25 22.96  .06996 1.0769 150.1 20.9 .295 141
2026 07 26 00  22 14 52.589   -08 28 59.76  .06998 1.0768 150.1 20.9 .290 141
2026 07 26 01  22 15 26.593   -08 32 36.33  .06999 1.0768 150.0 20.9 .285 140
2026 07 26 02  22 16 00.586   -08 36 12.66  .07001 1.0768 149.9 20.9 .279 140
2026 07 26 03  22 16 34.567   -08 39 48.75  .07003 1.0767 149.9 20.9 .274 140
2026 07 26 04  22 17 08.535   -08 43 24.59  .07004 1.0767 149.8 20.9 .268 139
2026 07 26 05  22 17 42.491   -08 47 00.18  .07006 1.0767 149.7 20.9 .261 139
2026 07 26 06  22 18 16.432   -08 50 35.52  .07008 1.0767 149.7 20.9 .254 139
2026 07 26 07  22 18 50.360   -08 54 10.59  .07010 1.0766 149.6 20.9 .247 138
2026 07 26 08  22 19 24.273   -08 57 45.40  .07012 1.0766 149.5 20.9 .240 138
2026 07 26 09  22 19 58.172   -09 01 19.94  .07014 1.0766 149.5 20.9 .232 138
2026 07 26 10  22 20 32.055   -09 04 54.20  .07016 1.0766 149.4 20.9 .224 137
2026 07 26 11  22 21 05.922   -09 08 28.19  .07018 1.0765 149.3 20.9 .215 137
2026 07 26 12  22 21 39.773   -09 12 01.90  .07020 1.0765 149.3 20.9 .206 137
2026 07 26 13  22 22 13.607   -09 15 35.32  .07022 1.0765 149.2 20.9 .197 137
2026 07 26 14  22 22 47.424   -09 19 08.44  .07024 1.0765 149.2 20.9 .187 137
2026 07 26 15  22 23 21.223   -09 22 41.28  .07027 1.0765 149.1 20.9 .177 136
2026 07 26 16  22 23 55.004   -09 26 13.81  .07029 1.0764 149.0 20.9 .167 136
2026 07 26 17  22 24 28.767   -09 29 46.04  .07032 1.0764 149.0 20.9 .156 136
2026 07 26 18  22 25 02.510   -09 33 17.96  .07034 1.0764 148.9 20.9 .145 136
2026 07 26 19  22 25 36.235   -09 36 49.58  .07037 1.0764 148.8 20.9 .134 136
2026 07 26 20  22 26 09.939   -09 40 20.87  .07039 1.0763 148.8 21.0 .122 136
2026 07 26 21  22 26 43.622   -09 43 51.85  .07042 1.0763 148.7 21.0 .110 136
2026 07 26 22  22 27 17.285   -09 47 22.50  .07044 1.0763 148.6 21.0 .098 137
2026 07 26 23  22 27 50.927   -09 50 52.83  .07047 1.0763 148.5 21.0 .085 137
2026 07 27 00  22 28 24.547   -09 54 22.82  .07050 1.0763 148.5 21.0 .072 138
2026 07 27 01  22 28 58.145   -09 57 52.48  .07053 1.0762 148.4 21.0 .058 139
2026 07 27 02  22 29 31.720   -10 01 21.80  .07056 1.0762 148.3 21.0 .045 141
2026 07 27 03  22 30 05.272   -10 04 50.77  .07059 1.0762 148.3 21.0 .031 145
2026 07 27 04  22 30 38.800   -10 08 19.40  .07062 1.0762 148.2 21.0 .017 157
2026 07 27 05  22 31 12.305   -10 11 47.68  .07065 1.0762 148.1 21.0 7.8m  37
2026 07 27 06  22 31 45.785   -10 15 15.61  .07068 1.0761 148.1 21.0 .017 103
2026 07 27 07  22 32 19.241   -10 18 43.17  .07071 1.0761 148.0 21.0 .031 116
2026 07 27 08  22 32 52.671   -10 22 10.38  .07074 1.0761 147.9 21.0 .047 120
2026 07 27 09  22 33 26.076   -10 25 37.22  .07077 1.0761 147.9 21.0 .063 123
2026 07 27 10  22 33 59.454   -10 29 03.69  .07081 1.0761 147.8 21.0 .079 124
2026 07 27 11  22 34 32.807   -10 32 29.79  .07084 1.0760 147.7 21.0 .096 125
2026 07 27 12  22 35 06.132   -10 35 55.51  .07087 1.0760 147.7 21.0 .114 125
2026 07 27 13  22 35 39.430   -10 39 20.85  .07091 1.0760 147.6 21.0 .131 126
2026 07 27 14  22 36 12.700   -10 42 45.81  .07094 1.0760 147.5 21.0 .149 126
2026 07 27 15  22 36 45.942   -10 46 10.39  .07098 1.0760 147.4 21.0 .167 126